Voltar ao catálogo

SL-16 DEB

AtivoLEO
NORAD 22458·DEBRIS·🇷🇺 Russia

Lançado Dec 25, 1992 de Baikonur Cosmodrome

Loading…

Próximas Passagens (próximas 24 horas)

TLE

AtualizadoSource: Space-Track

Época: Sep 13, 2026, 16:40 UTC

1 22458U 92093EX  26256.69447690  .00000153  00000-0  12687-3 0  9996
2 22458  70.8557 356.8476 0070275 112.5708  37.0058 14.02714502721211

Acompanhe SL-16 DEB em tempo real com AllMySat

Download on the App Store